Kuchera_Ratio
0.3 0.0 0.0 0.3 0.0 0.1 1.5 0.0 3.7 0.0 0.0 0.0 0.0 0.0 0.0 0.0 0.0 0.0 0.0 0.0 0.0 0.0 0.0 0.0 0.0 0.0 0.0 0.0 0.0 0.0 0.0 0.0 0.0 0.0 0.0 0.0 0.0 0.0 0.0 0.0 0.0 0.0 0.0 0.0
2.0 0.0 2.2 3.1 1.4 1.9 1.3 0.2 0.6 0.0 0.0 0.0 0.0 0.0 0.0 0.0 0.0 0.0 0.0 0.0 0.0 0.0 0.0 0.0 0.0 0.0 0.0 0.0 0.0 0.0 0.0 0.0 0.0 0.0 0.0 0.0 0.0 0.0 0.0 0.0 0.0 0.0 0.0 0.0
7.8 3.6 3.8 5.8 0.0 0.0 0.0 0.0 0.0 2.5 0.0 0.0 0.0 0.0 0.0 0.0 0.0 0.0 0.0 0.0 0.0 0.0 0.0 0.0 0.0 0.0 0.0 0.0 0.0 0.0 0.0 0.0 0.0 0.0 0.0 0.0 0.0 0.0 0.0 0.0 0.0 0.0 0.0 0.0
9.5 4.8 12.5 0.0 0.0 0.0 0.0 0.0 0.0 0.0 0.0 0.0 0.0 0.0 0.0 0.0 0.0 0.0 0.0 0.0 0.0 0.0 0.0 0.0 0.0 0.0 0.0 0.0 0.0 0.0 0.0 0.0 0.0 0.0 0.0 0.0 0.0 0.0 0.0 0.0 0.0 0.0 0.0 0.0
10.1 12.2 3.8 0.0 0.0 0.0 0.0 0.0 0.0 0.0 0.0 0.0 0.0 0.0 0.0 0.0 0.0 0.0 0.0 0.0 0.0 0.0 0.0 0.0 0.0 0.0 0.0 0.0 0.0 0.0 0.0 0.0 0.0 0.0 0.0 0.0 0.0 0.0 0.0 0.0 0.0 0.0 0.0 0.0
10.6 12.5 13.0 0.0 0.0 0.0 0.0 2.1 0.0 0.0 0.0 0.0 0.0 1.2 0.0 0.0 0.0 0.0 0.0 0.0 0.0 0.0 0.0 0.0 0.0 0.0 0.0 0.0 0.0 0.0 0.0 0.0 0.0 0.0 0.0 0.0 0.0 0.0 0.0 0.0 0.0 0.0 0.0 0.0
12.3 12.8 6.9 0.0 0.0 0.0 3.7 0.3 0.0 0.0 0.0 0.0 0.0 0.0 0.0 0.0 0.0 0.0 0.0 0.0 0.0 0.0 0.0 0.0 0.0 0.0 0.0 0.0 0.0 0.0 0.0 0.0 0.0 0.0 0.0 0.0 0.0 0.0 0.0 0.0 0.0 0.0 0.0 0.0
11.2 14.4 13.3 0.0 0.0 3.3 0.0 0.0 0.0 0.0 0.0 0.0 0.0 0.0 0.0 0.0 0.0 0.0 0.0 0.0 0.0 0.0 0.0 0.0 0.0 0.0 0.0 0.0 0.0 0.0 0.0 0.0 0.0 0.0 0.0 0.0 0.0 0.0 0.0 0.0 0.0 0.0 0.0 0.0
3.9 2.9 0.0 0.0 0.0 0.0 0.0 0.0 0.0 0.0 0.0 0.0 0.0 0.0 0.0 0.0 0.0 0.0 0.0 0.0 0.0 0.0 0.0 0.0 0.0 0.0 0.0 0.0 0.0 0.0 0.0 0.0 0.0 0.0 0.0 0.0 0.0 0.0 0.0 0.0 1.1 1.6 2.2 3.0
0.1 0.0 0.0 0.0 0.0 0.0 0.0 0.0 0.0 0.0 0.0 0.0 0.0 0.0 0.0 0.0 0.0 0.0 0.0 0.0 0.0 0.0 0.0 0.0 0.0 0.0 0.0 0.0 0.0 0.0 0.0 0.0 0.0 0.0 0.0 0.0 0.0 0.0 0.7 1.4 2.2 2.6 3.8 3.8
1.9 0.0 0.0 0.0 0.0 0.0 0.0 0.0 0.0 0.0 0.0 0.0 0.0 0.0 0.0 0.0 0.0 0.0 0.0 0.0 0.0 0.0 0.0 0.0 0.0 0.0 0.0 0.0 0.0 0.0 0.0 0.0 0.4 1.0 1.4 1.8 1.2 1.5 0.8 0.0 0.8 2.2 2.4 2.8
1.4 0.0 0.0 0.0 0.0 0.0 0.0 0.0 0.0 0.0 0.0 0.0 0.0 0.0 0.0 0.0 0.0 0.0 0.0 0.0 0.0 0.0 0.0 0.0 0.0 0.0 0.0 0.0 0.0 0.0 1.7 1.3 1.2 2.5 2.6 3.6 4.3 3.7 0.0 0.0 0.0 0.0 0.0 0.0
0.0 0.0 0.0 0.0 0.0 0.0 0.0 0.0 0.0 0.0 0.0 0.0 0.0 0.0 0.0 0.0 0.0 0.0 0.0 0.0 0.0 0.0 0.0 0.0 0.0 0.0 0.0 0.0 0.0 0.0 2.0 1.7 1.9 2.9 3.9 4.6 4.7 5.8 7.2 2.8 0.0 0.0 0.0 0.0
0.0 0.0 0.0 0.0 0.0 0.0 0.0 0.0 0.0 0.0 0.0 0.0 0.0 0.0 0.0 0.0 0.0 0.0 0.0 0.0 0.0 0.0 0.0 0.3 1.2 1.2 0.0 0.0 0.1 0.7 1.3 1.4 3.2 3.4 4.2 5.2 5.5 6.0 6.7 8.4 9.2 6.8 0.1 0.0
0.0 0.0 0.0 0.0 0.0 0.0 0.0 0.0 0.7 1.5 0.9 1.2 0.0 0.0 0.0 0.6 0.5 0.0 0.0 0.0 0.0 1.2 1.7 2.0 2.5 1.3 0.0 0.0 1.0 1.8 2.4 3.4 3.3 3.7 4.7 5.5 6.4 6.7 7.0 8.3 8.5 8.1 6.9 3.8
0.0 0.0 0.0 0.9 1.4 1.6 1.0 1.8 3.2 3.4 2.1 2.0 1.2 0.5 0.0 0.1 0.7 1.2 1.0 1.3 3.3 3.4 1.8 2.4 2.7 0.2 0.1 0.9 2.0 3.2 3.6 2.8 1.1 4.3 5.3 7.2 7.6 8.1 8.5 9.2 9.5 9.8 10.4 9.7
3.0 6.2 5.6 5.5 5.1 4.3 3.3 2.3 2.1 2.2 1.9 1.5 1.2 0.7 1.3 2.1 3.0 3.3 2.7 2.5 3.2 3.3 2.5 2.5 2.8 1.0 1.3 2.1 3.2 4.2 4.5 4.7 2.7 4.7 5.9 7.4 8.0 8.8 9.0 9.1 9.4 9.1 9.2 7.0
0.0 0.0 0.4 1.3 4.1 3.8 3.2 1.9 1.3 1.6 2.4 1.1 1.6 2.5 3.7 5.1 5.0 4.8 3.8 3.4 4.3 4.8 3.9 1.9 1.8 2.2 2.7 2.7 2.9 3.6 4.7 5.5 6.7 7.4 7.4 8.6 9.2 9.4 9.8 9.8 9.7 9.9 9.3 7.6
0.0 0.3 1.0 1.3 1.6 2.2 2.3 2.7 2.5 1.7 2.2 2.2 3.4 4.7 4.6 5.0 5.1 4.9 4.7 6.1 7.2 7.3 3.5 3.2 2.4 2.8 3.3 2.8 3.1 4.3 5.5 6.9 7.7 8.1 8.8 7.1 8.5 8.9 9.4 9.4 9.5 9.2 9.1 8.6
1.8 1.1 1.0 1.7 0.7 1.3 2.8 2.3 2.5 2.8 2.2 2.8 3.6 5.5 6.1 5.2 4.4 5.3 5.4 7.3 6.8 5.3 2.6 2.7 3.2 4.1 4.0 3.7 3.2 6.3 6.5 8.1 8.7 9.1 9.8 10.5 10.9 10.6 9.3 6.3 5.8 6.5 7.1 7.2
3.4 3.3 3.1 2.9 3.5 2.9 2.4 2.3 2.9 3.8 2.0 3.2 5.0 5.3 5.4 4.3 5.3 6.1 8.1 8.5 4.2 4.5 3.6 3.5 4.8 5.3 5.7 5.0 5.2 6.6 7.5 8.8 10.1 11.2 11.2 10.9 10.6 8.5 6.5 6.5 6.9 7.4 8.1 7.8
5.5 5.3 4.9 5.1 5.2 4.9 3.5 3.3 4.0 4.0 4.1 4.5 5.0 6.1 6.5 6.8 7.1 6.9 6.0 8.2 4.9 1.8 5.6 6.2 6.3 5.3 5.8 2.1 7.0 8.5 9.0 10.1 10.9 10.8 11.3 10.7 10.3 9.5 9.1 8.1 8.6 8.8 8.9 9.3
5.8 5.6 5.6 5.8 5.3 4.7 4.5 4.6 4.2 5.1 6.2 6.0 6.1 6.0 7.3 7.4 7.8 10.6 11.7 5.9 6.4 6.4 6.6 6.3 5.3 3.4 1.6 4.6 8.0 8.6 9.6 10.8 11.1 10.8 10.4 9.7 9.8 9.0 8.8 9.7 10.0 10.2 10.6 10.4
6.0 5.8 5.1 4.3 5.4 6.8 7.3 4.9 5.2 5.2 5.5 5.9 6.3 6.1 7.9 9.4 8.6 8.9 8.0 5.3 3.3 3.3 5.9 6.6 6.7 2.3 0.3 7.4 8.2 9.1 10.8 11.7 12.0 11.1 9.2 6.7 9.0 9.4 9.7 10.3 11.1 10.6 11.4 10.2
6.1 6.1 6.8 7.1 7.7 7.4 6.9 6.8 7.0 7.5 8.0 7.9 7.3 7.2 7.1 7.5 10.5 6.7 7.4 7.6 6.4 6.0 8.6 4.7 2.7 2.2 6.2 9.1 9.5 10.6 11.7 9.4 8.8 8.9 9.5 10.0 10.1 10.5 10.8 11.2 11.4 12.5 12.7 11.9
7.4 7.9 8.0 7.9 8.5 8.0 7.6 8.1 9.8 9.2 9.5 9.6 8.6 8.4 8.1 8.1 8.4 8.8 8.8 8.1 9.5 8.6 10.5 10.0 10.1 9.8 10.7 11.3 11.5 10.2 8.6 8.2 7.9 8.8 9.0 10.6 10.6 11.2 11.8 12.3 12.7 12.3 12.5 14.1
8.1 8.0 8.6 9.3 8.7 8.0 7.6 8.1 9.9 9.9 9.3 10.1 10.7 7.9 8.3 9.3 9.6 9.7 8.5 10.6 10.3 10.2 10.3 10.6 10.4 10.3 10.8 11.3 12.0 8.5 7.0 8.7 8.7 11.3 12.7 12.3 11.5 11.9 12.6 12.6 12.5 12.7 14.4 14.7